Shirley, NY

10:01 PM EDT on July 25, 2017 (GMT -0400)
Brookhaven

Weather History for KHWV - November, 2012

Change the Weather History Date:

Wednesday, November 21, 2012

  Actual Average (KISP) Record (KISP)
Temperature  
Mean Temperature 44 °F -  
Max Temperature 53 °F 50 °F 65 °F (1991)
Min Temperature 36 °F 34 °F 18 °F (1987)
Degree Days  
Heating Degree Days 20    
Moisture  
Dew Point 35 °F    
Average Humidity 75    
Maximum Humidity 89    
Minimum Humidity 48    
Precipitation  
Precipitation 0.00 in - - ()
Sea Level Pressure  
Sea Level Pressure 30.19 in    
Wind  
Wind Speed 3 mph (NNE)    
Max Wind Speed 10 mph    
Max Gust Speed -    
Visibility 10 miles    
Events      
Averages and records for this station are not official NWS values.
T = Trace of Precipitation, MM = Missing Value Source: NWS Daily Summary

Daily Weather History Graph

Daily Weather History Graph

Search for Another Location

Airport or City:

Trip Planner

Search our weather history database for the weather conditions in past years. The results will help you decide how hot, cold, wet, or windy it might be!

Date:

Astronomy

Nov. 21, 2012 Rise Set
Actual Time 6:46 AM EST 4:28 PM EST
Civil Twilight 6:16 AM EST 4:58 PM EST
Nautical Twilight 5:42 AM EST 5:31 PM EST
Astronomical Twilight 5:09 AM EST 6:04 PM EST
Moon 12:45 PM EST (11/21) No Moon Set
Length of Visible Light 10h 42m
Length of Day
9h 42m
First Quarter, 61% of the Moon is Illuminated
Nov 21
First Quarter
Nov 28
Full
Dec 6
Last Quarter
Dec 13
New
Dec 20
First Quarter

Hourly Weather History & Observations

Time (EST) Temp. Windchill Dew Point Humidity Pressure Visibility Wind Dir Wind Speed Gust Speed Precip Events Conditions
12:56 AM 42.1 °F 40.2 °F 37.0 °F 82% 30.14 in 10.0 mi NE 3.5 mph - N/A   Clear
1:56 AM 39.9 °F 37.8 °F 36.0 °F 86% 30.15 in 10.0 mi North 3.5 mph - N/A   Clear
2:56 AM 37.9 °F 35.5 °F 34.0 °F 86% 30.15 in 10.0 mi NNE 3.5 mph - N/A   Clear
3:56 AM 39.0 °F - 35.1 °F 86% 30.15 in 10.0 mi Calm Calm - N/A   Clear
4:56 AM 37.0 °F 34.5 °F 34.0 °F 89% 30.17 in 10.0 mi North 3.5 mph - N/A   Clear
5:56 AM 39.9 °F - 36.0 °F 86% 30.18 in 10.0 mi Calm Calm - N/A   Clear
6:56 AM 41.0 °F - 36.0 °F 82% 30.19 in 10.0 mi Calm Calm - N/A   Partly Cloudy
7:56 AM 43.0 °F 40.3 °F 37.0 °F 80% 30.19 in 10.0 mi North 4.6 mph - N/A   Clear
8:56 AM 48.0 °F - 37.0 °F 66% 30.21 in 10.0 mi North 5.8 mph - N/A   Clear
9:56 AM 50.0 °F - 37.0 °F 61% 30.21 in 10.0 mi NNE 6.9 mph - N/A   Clear
10:56 AM 52.0 °F - 37.0 °F 57% 30.20 in 10.0 mi North 6.9 mph - N/A   Clear
11:56 AM 53.1 °F - 36.0 °F 52% 30.19 in 10.0 mi North 9.2 mph - N/A   Clear
12:56 PM 53.1 °F - 35.1 °F 50% 30.18 in 10.0 mi North 10.4 mph - N/A   Clear
1:56 PM 53.1 °F - 34.0 °F 48% 30.17 in 10.0 mi Variable 5.8 mph - N/A   Clear
3:56 PM 51.1 °F - 36.0 °F 56% 30.18 in 10.0 mi North 4.6 mph - N/A   Clear
4:56 PM 44.1 °F - 34.0 °F 68% 30.20 in 10.0 mi Calm Calm - N/A   Clear
5:56 PM 41.0 °F - 33.1 °F 73% 30.21 in 10.0 mi Calm Calm - N/A   Clear
6:56 PM 37.9 °F - 32.0 °F 79% 30.22 in 10.0 mi Calm Calm - N/A   Clear
7:56 PM 36.0 °F - 30.9 °F 82% 30.23 in 10.0 mi Calm Calm - N/A   Clear
8:56 PM 39.9 °F - 35.1 °F 83% 30.24 in 10.0 mi Calm Calm - N/A   Clear
9:56 PM 36.0 °F 33.3 °F 33.1 °F 89% 30.24 in 10.0 mi North 3.5 mph - N/A   Clear
10:56 PM 41.0 °F 39.0 °F 37.0 °F 86% 30.23 in 10.0 mi North 3.5 mph - N/A   Clear
11:56 PM 41.0 °F 39.0 °F 37.9 °F 89% 30.23 in 10.0 mi NNE 3.5 mph - N/A   Clear